| time (UTC) | temp C | wind direction | speed KPH | gust KPH | rain 1hr cm | rain 24hr cm | rain mn cm | humidity % | barometer mb |
| 20260505224506 | 27 | 235 | 19.3 | 33.8 | 0.00 | 0.00 | 0.00 | 32 | 1008.1 |
| 20260505224007 | 27 | 253 | 17.7 | 43.5 | 0.00 | 0.00 | 0.00 | 32 | 1008.2 |
| 20260505223507 | 27 | 359 | 22.5 | 53.1 | 0.00 | 0.00 | 0.00 | 31 | 1008.0 |
| 20260505223007 | 27 | 229 | 22.5 | 53.1 | 0.00 | 0.00 | 0.00 | 30 | 1007.9 |
| 20260505222503 | 27 | 252 | 22.5 | 43.5 | 0.00 | 0.00 | 0.00 | 30 | 1008.0 |
| 20260505222005 | 27 | 272 | 24.1 | 51.5 | 0.00 | 0.00 | 0.00 | 29 | 1008.0 |
| 20260505221503 | 28 | 269 | 30.6 | 51.5 | 0.00 | 0.00 | 0.00 | 29 | 1008.0 |
| 20260505221002 | 28 | 259 | 24.1 | 48.3 | 0.00 | 0.00 | 0.00 | 29 | 1007.8 |
| 20260505220502 | 28 | 226 | 17.7 | 37.0 | 0.00 | 0.00 | 0.00 | 30 | 1007.8 |
| 20260505220006 | 28 | 279 | 16.1 | 51.5 | 0.00 | 0.00 | 0.00 | 30 | 1007.7 |
| 20260505215100 | 28 | 359 | 20.9 | 35.4 | 0.00 | 0.00 | 0.00 | 35 | 1007.5 |
| 20260505214609 | 28 | 245 | 20.9 | 33.8 | 0.00 | 0.00 | 0.00 | 35 | 1007.4 |
| 20260505214101 | 28 | 218 | 16.1 | 49.9 | 0.00 | 0.00 | 0.00 | 36 | 1007.6 |
| 20260505213558 | 28 | 235 | 24.1 | 43.5 | 0.00 | 0.00 | 0.00 | 36 | 1007.5 |
| 20260505213101 | 28 | 234 | 22.5 | 38.6 | 0.00 | 0.00 | 0.00 | 36 | 1007.6 |
| 20260505212557 | 28 | 287 | 19.3 | 46.7 | 0.00 | 0.00 | 0.00 | 36 | 1007.4 |
| 20260505212057 | 28 | 264 | 24.1 | 46.7 | 0.00 | 0.00 | 0.00 | 35 | 1007.5 |
| 20260505211616 | 28 | 359 | 19.3 | 46.7 | 0.00 | 0.00 | 0.00 | 34 | 1007.5 |
| 20260505211056 | 28 | 193 | 17.7 | 56.3 | 0.00 | 0.00 | 0.00 | 35 | 1007.4 |
| 20260505210556 | 28 | 316 | 20.9 | 56.3 | 0.00 | 0.00 | 0.00 | 35 | 1007.5 |
| 20260505210106 | 28 | 359 | 22.5 | 48.3 | 0.00 | 0.00 | 0.00 | 35 | 1007.3 |
| 20260505205555 | 28 | 282 | 20.9 | 53.1 | 0.00 | 0.00 | 0.00 | 34 | 1007.4 |
| 20260505205055 | 28 | 229 | 27.4 | 45.1 | 0.00 | 0.00 | 0.00 | 34 | 1007.2 |
| 20260505204555 | 28 | 240 | 24.1 | 41.8 | 0.00 | 0.00 | 0.00 | 33 | 1007.3 |
| 20260505204056 | 28 | 241 | 27.4 | 41.8 | 0.00 | 0.00 | 0.00 | 33 | 1007.2 |
| 20260505203554 | 28 | 254 | 25.7 | 41.8 | 0.00 | 0.00 | 0.00 | 33 | 1007.5 |
| 20260505203054 | 28 | 359 | 22.5 | 46.7 | 0.00 | 0.00 | 0.00 | 34 | 1007.5 |
| 20260505202554 | 28 | 359 | 27.4 | 46.7 | 0.00 | 0.00 | 0.00 | 33 | 1007.5 |
| 20260505202054 | 28 | 247 | 22.5 | 46.7 | 0.00 | 0.00 | 0.00 | 33 | 1007.5 |
| 20260505201604 | 28 | 359 | 12.9 | 46.7 | 0.00 | 0.00 | 0.00 | 34 | 1007.5 |
| 20260505201053 | 28 | 237 | 22.5 | 46.7 | 0.00 | 0.00 | 0.00 | 33 | 1007.7 |
| 20260505200552 | 28 | 246 | 22.5 | 41.8 | 0.00 | 0.00 | 0.00 | 32 | 1007.7 |
| 20260505200052 | 28 | 214 | 24.1 | 40.2 | 0.00 | 0.00 | 0.00 | 33 | 1007.7 |
| 20260505195552 | 28 | 229 | 17.7 | 40.2 | 0.00 | 0.00 | 0.00 | 33 | 1007.6 |
| 20260505195054 | 28 | 212 | 22.5 | 40.2 | 0.00 | 0.00 | 0.00 | 33 | 1007.6 |
| 20260505194550 | 28 | 231 | 24.1 | 40.2 | 0.00 | 0.00 | 0.00 | 32 | 1007.7 |
| 20260505194051 | 28 | 359 | 20.9 | 41.8 | 0.00 | 0.00 | 0.00 | 33 | 1007.7 |
| 20260505193552 | 28 | 232 | 22.5 | 45.1 | 0.00 | 0.00 | 0.00 | 34 | 1007.8 |
| 20260505193050 | 28 | 215 | 22.5 | 45.1 | 0.00 | 0.00 | 0.00 | 34 | 1007.9 |
| 20260505192549 | 28 | 249 | 29.0 | 45.1 | 0.00 | 0.00 | 0.00 | 34 | 1008.1 |
| 20260505192045 | 28 | 210 | 27.4 | 45.1 | 0.00 | 0.00 | 0.00 | 34 | 1008.1 |
| 20260505191552 | 28 | 359 | 14.5 | 35.4 | 0.00 | 0.00 | 0.00 | 35 | 1008.1 |
| 20260505191043 | 28 | 359 | 19.3 | 38.6 | 0.00 | 0.00 | 0.00 | 36 | 1008.2 |
| 20260505190542 | 28 | 227 | 20.9 | 46.7 | 0.00 | 0.00 | 0.00 | 36 | 1008.2 |
| 20260505190058 | 28 | 208 | 25.7 | 46.7 | 0.00 | 0.00 | 0.00 | 36 | 1008.3 |
| 20260505185539 | 28 | 257 | 17.7 | 37.0 | 0.00 | 0.00 | 0.00 | 37 | 1008.6 |
| 20260505185038 | 28 | 216 | 22.5 | 46.7 | 0.00 | 0.00 | 0.00 | 37 | 1008.7 |
| 20260505184542 | 28 | 231 | 24.1 | 46.7 | 0.00 | 0.00 | 0.00 | 36 | 1008.6 |
| 20260505184037 | 28 | 222 | 22.5 | 45.1 | 0.00 | 0.00 | 0.00 | 37 | 1008.7 |
| 20260505183539 | 28 | 251 | 20.9 | 35.4 | 0.00 | 0.00 | 0.00 | 38 | 1008.8 |
| 20260505183047 | 28 | 237 | 19.3 | 43.5 | 0.00 | 0.00 | 0.00 | 38 | 1008.8 |
| 20260505182536 | 28 | 231 | 20.9 | 43.5 | 0.00 | 0.00 | 0.00 | 38 | 1008.9 |
| 20260505182035 | 28 | 359 | 17.7 | 43.5 | 0.00 | 0.00 | 0.00 | 38 | 1008.8 |
| 20260505181534 | 28 | 175 | 22.5 | 43.5 | 0.00 | 0.00 | 0.00 | 38 | 1008.8 |
| 20260505181039 | 28 | 359 | 20.9 | 32.2 | 0.00 | 0.00 | 0.00 | 39 | 1008.8 |
| 20260505180538 | 28 | 298 | 14.5 | 29.0 | 0.00 | 0.00 | 0.00 | 39 | 1008.8 |
| 20260505180038 | 28 | 237 | 12.9 | 30.6 | 0.00 | 0.00 | 0.00 | 40 | 1009.0 |
| 20260505175533 | 28 | 207 | 12.9 | 38.6 | 0.00 | 0.00 | 0.00 | 40 | 1009.1 |
| 20260505175030 | 27 | 243 | 19.3 | 38.6 | 0.00 | 0.00 | 0.00 | 40 | 1009.2 |
| 20260505174537 | 27 | 234 | 19.3 | 37.0 | 0.00 | 0.00 | 0.00 | 41 | 1009.2 |
| 20260505174029 | 27 | 191 | 20.9 | 37.0 | 0.00 | 0.00 | 0.00 | 41 | 1009.4 |
| 20260505173528 | 27 | 230 | 14.5 | 32.2 | 0.00 | 0.00 | 0.00 | 41 | 1009.4 |
| 20260505173035 | 27 | 233 | 20.9 | 32.2 | 0.00 | 0.00 | 0.00 | 41 | 1009.5 |
| 20260505172525 | 27 | 251 | 17.7 | 30.6 | 0.00 | 0.00 | 0.00 | 41 | 1009.4 |
| 20260505172029 | 27 | 228 | 16.1 | 29.0 | 0.00 | 0.00 | 0.00 | 42 | 1009.5 |
| 20260505171530 | 27 | 359 | 12.9 | 29.0 | 0.00 | 0.00 | 0.00 | 43 | 1009.5 |
| 20260505171022 | 27 | 227 | 16.1 | 29.0 | 0.00 | 0.00 | 0.00 | 42 | 1009.5 |
| 20260505170019 | 27 | 359 | 12.9 | 27.4 | 0.00 | 0.00 | 0.00 | 43 | 1009.6 |
| 20260505165519 | 26 | 249 | 12.9 | 30.6 | 0.00 | 0.00 | 0.00 | 44 | 1009.7 |
| 20260505165022 | 26 | 207 | 17.7 | 30.6 | 0.00 | 0.00 | 0.00 | 44 | 1009.8 |
| 20260505164531 | 26 | 219 | 16.1 | 32.2 | 0.00 | 0.00 | 0.00 | 43 | 1009.8 |
| 20260505164018 | 26 | 197 | 14.5 | 32.2 | 0.00 | 0.00 | 0.00 | 45 | 1009.8 |
| 20260505163517 | 26 | 205 | 16.1 | 25.7 | 0.00 | 0.00 | 0.00 | 44 | 1009.9 |
| 20260505163022 | 26 | 210 | 9.7 | 29.0 | 0.00 | 0.00 | 0.00 | 45 | 1009.9 |
| 20260505162515 | 26 | 235 | 17.7 | 35.4 | 0.00 | 0.00 | 0.00 | 45 | 1010.1 |
| 20260505162016 | 26 | 215 | 16.1 | 35.4 | 0.00 | 0.00 | 0.00 | 45 | 1010.1 |
| 20260505161515 | 26 | 359 | 14.5 | 22.5 | 0.00 | 0.00 | 0.00 | 44 | 1010.1 |
| 20260505161016 | 26 | 359 | 12.9 | 24.1 | 0.00 | 0.00 | 0.00 | 46 | 1010.2 |
| 20260505160514 | 26 | 359 | 9.7 | 20.9 | 0.00 | 0.00 | 0.00 | 45 | 1010.2 |
| 20260505153006 | 25 | 245 | 11.3 | 19.3 | 0.00 | 0.00 | 0.00 | 46 | 1010.5 |
| 20260505152505 | 25 | 236 | 11.3 | 25.7 | 0.00 | 0.00 | 0.00 | 48 | 1010.4 |
| 20260505152008 | 25 | 359 | 11.3 | 19.3 | 0.00 | 0.00 | 0.00 | 47 | 1010.4 |
| 20260505151504 | 25 | 115 | 6.4 | 14.5 | 0.00 | 0.00 | 0.00 | 50 | 1010.3 |
| 20260505151002 | 25 | 359 | 4.8 | 17.7 | 0.00 | 0.00 | 0.00 | 49 | 1010.2 |
| 20260505150601 | 24 | 359 | 8.0 | 24.1 | 0.00 | 0.00 | 0.00 | 50 | 1010.4 |
| 20260505150116 | 24 | 276 | 14.5 | 25.7 | 0.00 | 0.00 | 0.00 | 49 | 1010.7 |
| 20260505140545 | 21 | 359 | 11.3 | 27.4 | 0.00 | 0.00 | 0.00 | 56 | 1011.0 |
| 20260505125031 | 20 | 239 | 11.3 | 24.1 | 0.00 | 0.00 | 0.00 | 61 | 1011.0 |
| 20260505124531 | 19 | 226 | 11.3 | 20.9 | 0.00 | 0.00 | 0.00 | 62 | 1011.1 |
| 20260505124030 | 19 | 219 | 14.5 | 20.9 | 0.00 | 0.00 | 0.00 | 62 | 1011.0 |
| 20260505123529 | 19 | 224 | 8.0 | 17.7 | 0.00 | 0.00 | 0.00 | 63 | 1011.0 |
| 20260505123045 | 19 | 252 | 8.0 | 20.9 | 0.00 | 0.00 | 0.00 | 63 | 1011.1 |
| 20260505122526 | 18 | 359 | 11.3 | 20.9 | 0.00 | 0.00 | 0.00 | 62 | 1011.0 |
| 20260505122026 | 18 | 250 | 8.0 | 22.5 | 0.00 | 0.00 | 0.00 | 63 | 1010.8 |
| 20260505121533 | 18 | 255 | 11.3 | 25.7 | 0.00 | 0.00 | 0.00 | 63 | 1010.9 |
| 20260505121026 | 18 | 243 | 12.9 | 25.7 | 0.00 | 0.00 | 0.00 | 63 | 1011.0 |
| 20260505120524 | 18 | 257 | 8.0 | 19.3 | 0.00 | 0.00 | 0.00 | 63 | 1010.9 |
| 20260505120036 | 18 | 278 | 6.4 | 19.3 | 0.00 | 0.00 | 0.00 | 64 | 1010.9 |
| 20260505115522 | 18 | 263 | 8.0 | 16.1 | 0.00 | 0.00 | 0.00 | 64 | 1010.9 |
| 20260505115022 | 18 | 226 | 9.7 | 17.7 | 0.00 | 0.00 | 0.00 | 65 | 1010.8 |
| 20260505114525 | 18 | 243 | 8.0 | 17.7 | 0.00 | 0.00 | 0.00 | 66 | 1010.8 |
| 20260505114020 | 17 | 198 | 11.3 | 19.3 | 0.00 | 0.00 | 0.00 | 66 | 1011.0 |
| 20260505113519 | 17 | 297 | 6.4 | 19.3 | 0.00 | 0.00 | 0.00 | 66 | 1010.9 |
| 20260505113019 | 17 | 359 | 4.8 | 19.3 | 0.00 | 0.00 | 0.00 | 67 | 1010.9 |
| 20260505112517 | 17 | 235 | 6.4 | 24.1 | 0.00 | 0.00 | 0.00 | 67 | 1010.9 |
| 20260505112016 | 17 | 240 | 14.5 | 24.1 | 0.00 | 0.00 | 0.00 | 67 | 1011.0 |
| 20260505111519 | 17 | 359 | 8.0 | 22.5 | 0.00 | 0.00 | 0.00 | 68 | 1010.9 |
| 20260505111014 | 17 | 243 | 11.3 | 19.3 | 0.00 | 0.00 | 0.00 | 68 | 1010.9 |
| 20260505110515 | 16 | 272 | 6.4 | 12.9 | 0.00 | 0.00 | 0.00 | 70 | 1010.9 |
| 20260505102004 | 15 | 359 | 6.4 | 9.7 | 0.00 | 0.00 | 0.00 | 74 | 1010.7 |
| 20260505101507 | 15 | 230 | 4.8 | 11.3 | 0.00 | 0.00 | 0.00 | 75 | 1010.8 |
| 20260505101004 | 15 | 242 | 6.4 | 12.9 | 0.00 | 0.00 | 0.00 | 75 | 1010.9 |
| 20260505100503 | 15 | 301 | 3.2 | 12.9 | 0.00 | 0.00 | 0.00 | 75 | 1010.6 |
| 20260505100002 | 15 | 283 | 4.8 | 14.5 | 0.00 | 0.00 | 0.00 | 75 | 1010.5 |
| 20260505095502 | 14 | 272 | 3.2 | 14.5 | 0.00 | 0.00 | 0.00 | 75 | 1010.3 |
| 20260505095001 | 14 | 267 | 8.0 | 14.5 | 0.00 | 0.00 | 0.00 | 75 | 1010.1 |
| 20260505094501 | 15 | 359 | 4.8 | 14.5 | 0.00 | 0.00 | 0.00 | 75 | 1009.9 |
| 20260505094001 | 15 | 359 | 4.8 | 14.5 | 0.00 | 0.00 | 0.00 | 75 | 1009.9 |
| 20260505093502 | 15 | 237 | 4.8 | 17.7 | 0.00 | 0.00 | 0.00 | 75 | 1009.8 |
| 20260505093101 | 15 | 359 | 6.4 | 17.7 | 0.00 | 0.00 | 0.00 | 75 | 1009.9 |
| 20260505092604 | 14 | 222 | 6.4 | 14.5 | 0.00 | 0.00 | 0.00 | 75 | 1009.8 |
| 20260505092059 | 15 | 214 | 4.8 | 14.5 | 0.00 | 0.00 | 0.00 | 75 | 1009.7 |
| 20260505091559 | 15 | 235 | 6.4 | 17.7 | 0.00 | 0.00 | 0.00 | 75 | 1009.6 |
| 20260505091057 | 14 | 233 | 8.0 | 17.7 | 0.00 | 0.00 | 0.00 | 75 | 1009.7 |
| 20260505090557 | 14 | 296 | 3.2 | 16.1 | 0.00 | 0.00 | 0.00 | 76 | 1009.7 |
| 20260505090109 | 14 | 359 | 3.2 | 14.5 | 0.00 | 0.00 | 0.00 | 76 | 1009.8 |
| 20260505085556 | 14 | 359 | 4.8 | 14.5 | 0.00 | 0.00 | 0.00 | 76 | 1009.8 |
| 20260505085056 | 13 | 233 | 4.8 | 11.3 | 0.00 | 0.00 | 0.00 | 76 | 1009.8 |
| 20260505084557 | 13 | 235 | 3.2 | 12.9 | 0.00 | 0.00 | 0.00 | 75 | 1009.8 |
| 20260505084055 | 13 | 216 | 6.4 | 12.9 | 0.00 | 0.00 | 0.00 | 75 | 1009.9 |
| 20260505083554 | 13 | 228 | 4.8 | 9.7 | 0.00 | 0.00 | 0.00 | 75 | 1009.9 |
| 20260505083107 | 13 | 227 | 3.2 | 8.0 | 0.00 | 0.00 | 0.00 | 74 | 1009.9 |
| 20260505082553 | 14 | 224 | 3.2 | 8.0 | 0.00 | 0.00 | 0.00 | 74 | 1009.9 |
| 20260505082052 | 14 | 359 | 3.2 | 8.0 | 0.00 | 0.00 | 0.00 | 74 | 1010.1 |
| 20260505081553 | 14 | 359 | 3.2 | 8.0 | 0.00 | 0.00 | 0.00 | 73 | 1010.0 |
| 20260505081051 | 14 | 247 | 4.8 | 8.0 | 0.00 | 0.00 | 0.00 | 73 | 1010.0 |
| 20260505080550 | 14 | 233 | 4.8 | 8.0 | 0.00 | 0.00 | 0.00 | 73 | 1010.0 |
| 20260505080055 | 14 | 233 | 3.2 | 9.7 | 0.00 | 0.00 | 0.00 | 72 | 1010.0 |
| 20260505075549 | 14 | 245 | 6.4 | 12.9 | 0.00 | 0.00 | 0.00 | 72 | 1010.0 |
| 20260505075049 | 15 | 237 | 3.2 | 12.9 | 0.00 | 0.00 | 0.00 | 72 | 1010.0 |
| 20260505074550 | 14 | 234 | 6.4 | 11.3 | 0.00 | 0.00 | 0.00 | 72 | 1010.0 |
| 20260505074053 | 14 | 255 | 4.8 | 9.7 | 0.00 | 0.00 | 0.00 | 72 | 1009.9 |
| 20260505073551 | 14 | 223 | 4.8 | 8.0 | 0.00 | 0.00 | 0.00 | 71 | 1009.9 |
| 20260505073056 | 14 | 240 | 3.2 | 8.0 | 0.00 | 0.00 | 0.00 | 71 | 1009.9 |
| 20260505072549 | 15 | 239 | 3.2 | 8.0 | 0.00 | 0.00 | 0.00 | 71 | 1009.9 |
| 20260505072046 | 15 | 223 | 3.2 | 9.7 | 0.00 | 0.00 | 0.00 | 71 | 1009.8 |
| 20260505071546 | 15 | 256 | 4.8 | 9.7 | 0.00 | 0.00 | 0.00 | 70 | 1009.9 |
| 20260505071046 | 15 | 359 | 4.8 | 14.5 | 0.00 | 0.00 | 0.00 | 70 | 1009.9 |
| 20260505070549 | 15 | 224 | 6.4 | 16.1 | 0.00 | 0.00 | 0.00 | 70 | 1009.9 |
| 20260505070052 | 15 | 228 | 4.8 | 16.1 | 0.00 | 0.00 | 0.00 | 70 | 1009.8 |
| 20260505065545 | 15 | 237 | 6.4 | 11.3 | 0.00 | 0.00 | 0.00 | 70 | 1009.8 |
| 20260505065045 | 15 | 219 | 4.8 | 11.3 | 0.00 | 0.00 | 0.00 | 70 | 1009.7 |
| 20260505064543 | 15 | 359 | 3.2 | 9.7 | 0.00 | 0.00 | 0.00 | 70 | 1009.9 |
| 20260505064047 | 15 | 264 | 4.8 | 9.7 | 0.00 | 0.00 | 0.00 | 70 | 1009.9 |
| 20260505063544 | 15 | 261 | 3.2 | 9.7 | 0.00 | 0.00 | 0.00 | 69 | 1009.9 |
| 20260505063043 | 15 | 226 | 4.8 | 9.7 | 0.00 | 0.00 | 0.00 | 69 | 1009.8 |
| 20260505062542 | 15 | 218 | 4.8 | 11.3 | 0.00 | 0.00 | 0.00 | 69 | 1009.9 |
| 20260505062042 | 15 | 231 | 3.2 | 12.9 | 0.00 | 0.00 | 0.00 | 69 | 1009.9 |
| 20260505061540 | 14 | 241 | 6.4 | 12.9 | 0.00 | 0.00 | 0.00 | 70 | 1010.0 |
| 20260505061040 | 14 | 272 | 1.6 | 8.0 | 0.00 | 0.00 | 0.00 | 69 | 1010.1 |
| 20260505060540 | 14 | 270 | 3.2 | 8.0 | 0.00 | 0.00 | 0.00 | 69 | 1010.0 |
| 20260505060038 | 15 | 359 | 1.6 | 6.4 | 0.00 | 0.00 | 0.00 | 69 | 1010.0 |
| 20260505055539 | 15 | 249 | 1.6 | 6.4 | 0.00 | 0.00 | 0.00 | 68 | 1010.0 |
| 20260505055040 | 15 | 233 | 3.2 | 8.0 | 0.00 | 0.00 | 0.00 | 68 | 1009.9 |
| 20260505054537 | 15 | 223 | 3.2 | 9.7 | 0.00 | 0.00 | 0.00 | 68 | 1009.9 |
| 20260505054036 | 15 | 359 | 4.8 | 9.7 | 0.00 | 0.00 | 0.00 | 68 | 1009.9 |
| 20260505053541 | 15 | 222 | 4.8 | 8.0 | 0.00 | 0.00 | 0.00 | 68 | 1009.9 |
| 20260505053036 | 15 | 242 | 3.2 | 11.3 | 0.00 | 0.00 | 0.00 | 68 | 1010.1 |
| 20260505052535 | 15 | 235 | 4.8 | 11.3 | 0.00 | 0.00 | 0.00 | 68 | 1010.0 |
| 20260505052034 | 15 | 359 | 3.2 | 6.4 | 0.00 | 0.00 | 0.00 | 68 | 1010.1 |
| 20260505051537 | 15 | 222 | 3.2 | 6.4 | 0.00 | 0.00 | 0.00 | 68 | 1010.2 |
| 20260505051033 | 15 | 228 | 1.6 | 6.4 | 0.00 | 0.00 | 0.00 | 68 | 1010.3 |
| 20260505050535 | 15 | 238 | 1.6 | 8.0 | 0.00 | 0.00 | 0.00 | 68 | 1010.3 |
| 20260505050104 | 15 | 208 | 1.6 | 8.0 | 0.00 | 0.00 | 0.00 | 67 | 1010.3 |
| 20260505041545 | 15 | 213 | 6.4 | 14.5 | 0.00 | 0.00 | 0.00 | 65 | 1010.4 |
| 20260505041025 | 15 | 226 | 4.8 | 14.5 | 0.00 | 0.00 | 0.00 | 65 | 1010.5 |
| 20260505040525 | 15 | 187 | 4.8 | 11.3 | 0.00 | 0.00 | 0.00 | 65 | 1010.5 |
| 20260505040024 | 15 | 213 | 4.8 | 11.3 | 0.00 | 0.00 | 0.00 | 65 | 1010.5 |
| 20260505035524 | 15 | 207 | 4.8 | 11.3 | 0.00 | 0.00 | 0.00 | 64 | 1010.5 |
| 20260505035024 | 15 | 205 | 4.8 | 12.9 | 0.00 | 0.00 | 0.00 | 64 | 1010.6 |
| 20260505034524 | 15 | 214 | 6.4 | 12.9 | 0.00 | 0.00 | 0.00 | 64 | 1010.5 |
| 20260505034026 | 15 | 177 | 4.8 | 11.3 | 0.00 | 0.00 | 0.00 | 64 | 1010.4 |
| 20260505033523 | 16 | 181 | 4.8 | 12.9 | 0.00 | 0.00 | 0.00 | 63 | 1010.5 |
| 20260505033024 | 16 | 188 | 8.0 | 12.9 | 0.00 | 0.00 | 0.00 | 63 | 1010.4 |
| 20260505032526 | 16 | 225 | 4.8 | 12.9 | 0.00 | 0.00 | 0.00 | 63 | 1010.5 |
| 20260505032022 | 16 | 198 | 3.2 | 12.9 | 0.00 | 0.00 | 0.00 | 62 | 1010.6 |
| 20260505031522 | 16 | 200 | 4.8 | 11.3 | 0.00 | 0.00 | 0.00 | 62 | 1010.6 |
| 20260505031022 | 16 | 171 | 4.8 | 11.3 | 0.00 | 0.00 | 0.00 | 61 | 1010.6 |
| 20260505030523 | 16 | 199 | 4.8 | 12.9 | 0.00 | 0.00 | 0.00 | 61 | 1010.7 |
| 20260505030024 | 16 | 201 | 6.4 | 12.9 | 0.00 | 0.00 | 0.00 | 61 | 1010.7 |
| 20260505025522 | 16 | 359 | 6.4 | 14.5 | 0.00 | 0.00 | 0.00 | 60 | 1010.8 |
| 20260505025022 | 16 | 212 | 4.8 | 14.5 | 0.00 | 0.00 | 0.00 | 60 | 1010.7 |
| 20260505024525 | 16 | 190 | 4.8 | 12.9 | 0.00 | 0.00 | 0.00 | 59 | 1010.7 |
| 20260505024021 | 16 | 198 | 3.2 | 12.9 | 0.00 | 0.00 | 0.00 | 59 | 1010.8 |
| 20260505023522 | 16 | 168 | 6.4 | 11.3 | 0.00 | 0.00 | 0.00 | 59 | 1010.8 |
| 20260505023023 | 16 | 234 | 4.8 | 11.3 | 0.00 | 0.00 | 0.00 | 58 | 1010.9 |
| 20260505022523 | 16 | 143 | 4.8 | 9.7 | 0.00 | 0.00 | 0.00 | 58 | 1010.9 |
| 20260505022021 | 17 | 210 | 3.2 | 9.7 | 0.00 | 0.00 | 0.00 | 57 | 1010.9 |
| 20260505021525 | 17 | 207 | 3.2 | 11.3 | 0.00 | 0.00 | 0.00 | 57 | 1010.9 |
| 20260505021020 | 17 | 194 | 4.8 | 12.9 | 0.00 | 0.00 | 0.00 | 57 | 1010.9 |
| 20260505020520 | 17 | 214 | 4.8 | 14.5 | 0.00 | 0.00 | 0.00 | 57 | 1011.0 |
| 20260505020021 | 17 | 230 | 4.8 | 14.5 | 0.00 | 0.00 | 0.00 | 56 | 1011.0 |
| 20260505015520 | 17 | 227 | 4.8 | 12.9 | 0.00 | 0.00 | 0.00 | 56 | 1010.9 |
| 20260505015020 | 17 | 217 | 4.8 | 12.9 | 0.00 | 0.00 | 0.00 | 56 | 1010.7 |
| 20260505014519 | 17 | 147 | 3.2 | 14.5 | 0.00 | 0.00 | 0.00 | 55 | 1010.6 |
| 20260505014019 | 17 | 178 | 6.4 | 14.5 | 0.00 | 0.00 | 0.00 | 54 | 1010.5 |
| 20260505013522 | 17 | 207 | 6.4 | 19.3 | 0.00 | 0.00 | 0.00 | 54 | 1010.5 |
| 20260505013021 | 17 | 359 | 8.0 | 19.3 | 0.00 | 0.00 | 0.00 | 54 | 1010.6 |
| 20260505012518 | 17 | 188 | 8.0 | 16.1 | 0.00 | 0.00 | 0.00 | 53 | 1010.4 |
| 20260505012018 | 18 | 189 | 4.8 | 17.7 | 0.00 | 0.00 | 0.00 | 53 | 1010.3 |
| 20260505011527 | 18 | 184 | 8.0 | 16.1 | 0.00 | 0.00 | 0.00 | 52 | 1010.3 |
| 20260505011021 | 18 | 216 | 6.4 | 16.1 | 0.00 | 0.00 | 0.00 | 50 | 1010.3 |
| 20260505010518 | 18 | 211 | 6.4 | 12.9 | 0.00 | 0.00 | 0.00 | 48 | 1010.2 |
| 20260505010017 | 18 | 222 | 6.4 | 12.9 | 0.00 | 0.00 | 0.00 | 46 | 1010.2 |
| 20260505005518 | 19 | 180 | 4.8 | 8.0 | 0.00 | 0.00 | 0.00 | 45 | 1010.1 |
| 20260505005017 | 19 | 183 | 3.2 | 8.0 | 0.00 | 0.00 | 0.00 | 43 | 1010.0 |
| 20260505004530 | 20 | 220 | 1.6 | 8.0 | 0.00 | 0.00 | 0.00 | 42 | 1010.0 |
| 20260505004016 | 20 | 218 | 4.8 | 12.9 | 0.00 | 0.00 | 0.00 | 42 | 1010.0 |
| 20260505003516 | 20 | 216 | 4.8 | 16.1 | 0.00 | 0.00 | 0.00 | 42 | 1010.0 |
| 20260505003017 | 20 | 254 | 6.4 | 17.7 | 0.00 | 0.00 | 0.00 | 41 | 1009.9 |
| 20260505002516 | 20 | 209 | 8.0 | 17.7 | 0.00 | 0.00 | 0.00 | 41 | 1009.9 |
| 20260505002016 | 20 | 228 | 8.0 | 16.1 | 0.00 | 0.00 | 0.00 | 41 | 1009.8 |
| 20260505001516 | 20 | 239 | 6.4 | 24.1 | 0.00 | 0.00 | 0.00 | 40 | 1009.6 |
| 20260505001016 | 20 | 215 | 11.3 | 24.1 | 0.00 | 0.00 | 0.00 | 40 | 1009.4 |
| 20260505000516 | 20 | 252 | 12.9 | 22.5 | 0.00 | 0.00 | 0.00 | 40 | 1009.4 |
| 20260505000026 | 20 | 219 | 8.0 | 19.3 | 0.00 | 0.00 | 0.00 | 39 | 1009.4 |
| 20260504235516 | 20 | 359 | 12.9 | 19.3 | 0.00 | 0.00 | 0.00 | 39 | 1009.3 |
| 20260504235015 | 21 | 221 | 11.3 | 25.7 | 0.00 | 0.00 | 0.00 | 39 | 1009.3 |
| 20260504234516 | 21 | 275 | 14.5 | 25.7 | 0.00 | 0.00 | 0.00 | 39 | 1009.3 |
| 20260504234015 | 21 | 247 | 11.3 | 25.7 | 0.00 | 0.00 | 0.00 | 38 | 1009.2 |
| 20260504233515 | 21 | 359 | 12.9 | 20.9 | 0.00 | 0.00 | 0.00 | 38 | 1009.2 |
| 20260504233015 | 21 | 224 | 8.0 | 25.7 | 0.00 | 0.00 | 0.00 | 38 | 1009.0 |
| 20260504232514 | 21 | 238 | 11.3 | 25.7 | 0.00 | 0.00 | 0.00 | 37 | 1009.0 |
| 20260504232013 | 21 | 216 | 16.1 | 24.1 | 0.00 | 0.00 | 0.00 | 37 | 1008.9 |
| 20260504231514 | 21 | 224 | 14.5 | 37.0 | 0.00 | 0.00 | 0.00 | 37 | 1008.8 |
| 20260504231014 | 21 | 264 | 11.3 | 37.0 | 0.00 | 0.00 | 0.00 | 37 | 1008.9 |
| 20260504230513 | 21 | 224 | 16.1 | 25.7 | 0.00 | 0.00 | 0.00 | 36 | 1008.7 |
| 20260504230017 | 22 | 241 | 12.9 | 24.1 | 0.00 | 0.00 | 0.00 | 36 | 1008.7 |
| 20260504225513 | 22 | 243 | 11.3 | 29.0 | 0.00 | 0.00 | 0.00 | 36 | 1008.7 |
| 20260504225014 | 22 | 262 | 14.5 | 30.6 | 0.00 | 0.00 | 0.00 | 36 | 1008.7 |